User: anonymous   Login
Location: Unspecified
(0.0000°N, 0.0000°E)
Time: 21:36:39
(UTC+00:00)
Language:

IGS O-6 - Orbit

View from above orbital plane
View from above orbital plane
View from above satellite
View from above satellite

Ground track
Ground track

The orbit data is extracted from the following two-line orbital elements,

1 43223U 18021A   21251.01444108 0.00000000  00000-0  00000-0 0    02
2 43223  97.3579  10.0125 0002002 270.9703  89.0296 15.27652587    09
Epoch (UTC): 08 September 2021 00:20:47
Eccentricity: 0.0002002
inclination: 97.3579°
perigee height: 481 km
apogee height: 484 km
right ascension of ascending node: 10.0125°
argument of perigee: 270.9703°
revolutions per day: 15.27652587
mean anomaly at epoch: 89.0296°
orbit number at epoch: 0

The dashed part of the orbit path shows where the satellite is in the earth's shadow,  

DLR